STARLINK-11419, 62883

Orbit data source: Space-Track

STARLINK-11419, 62883 is a payload satellite owned by SpaceX/Seattle (US) in LEO that was launched on Tue, 04 Feb 2025 UTC via an FALCON 9 launch vehicle from the Air Force Eastern Test Range (AFETR). Payload-class satellites include a variety of spacecraft equipped with specific instruments for various scientific and technological missions. These include communications satellites like Starlink; space stations such as the ISS; scientific satellites like the Hubble; Earth observation satellites from companies like Planet Labs, Umbra, and HawkEye 360; GPS; miniature CubeSats for education and research; and military/defense satellites.

Loading next visibility...
Identifier
62883, 2025-024E
Orbit
LEO
Country
Flag of USUS
Related business
Manufacturer
SpaceX/Seattle
Mission
Operational Commercial Communications
Bus & Motor
STARLINK V2MD, Unknown motor
Mass
960 kg wet, ~910 kg dry
Launch date (UTC)
2025-02-04 (1 year ago)
Launch vehicle
FALCON 9
Launch site
Air Force Eastern Test Range (AFETR)
Object type
Payload
Rocket body
Debris
Shape & HBR
Box + 2 Pan, 18.1 m
Radar Cross Section
36.964 m², Large (>1 m²)

Expand to show TLE details & history
Last TLE update: 6 hours ago

TLE from 6 hours ago
0 STARLINK-11419
1 62883U 25024E   26036.17956573  .00094268  00000-0  72656-3 0  9998
2 62883  43.0007  17.4115 0001612 270.7592  89.3091 15.70947440 58356
Epoch: 2026-02-05T04:18Z
TLE epoch observation values (Epoch: 2026-02-05T04:18:34.479Z)
Latitude
Longitude
177.43233°
Altitude
355.946 km
Speed
7.697 km/s
True Right ascension
01h 09m 38s
True Declination
0° 00' 00"
Sunlit
Object was in daylight at epoch
Visualization orbit readout
Latitude
Unknown
Longitude
Unknown
Altitude
Unknown
Speed
Unknown
Apparent Right ascension
Unknown
Apparent Declination
Unknown
Sunlit
N/A
Visualization observer readout
Local Sidereal Time
12:27:12
Azimuth
Unknown
Elevation
Unknown
Doppler factor
Unknown
Orbital elements
Apogee altitude
359.255 km
Perigee altitude
357.084 km
Semi-major axis
6,736.307 km
Eccentricity
0.00016
Inclination
43.0007°
RAAN
17.4115°
Arg. of periapsis
270.7592°
True anomaly
89.32757°
Mean anomaly
89.3091°
Eccentric anomaly
89.31834°
Mean motion
3.92564 °/min
Orbital period
91.7 mins
BSTAR
0.00072656
Loading maneuver chart data...
Computing Atmospheric mass density...
Loading historical data...
Loading historical data...
Loading historical data...
Loading historical data...
Loading historical data...
Loading historical data...
Loading historical data...

Documentation

Showing up to 5 results
|